Date String (YYYY-MM-DD hh:mm:ss) UTC,Instrument flags,Ambient pressure (hPa),Sample flow (lpm),Bypass flow (lpm),Sample temperature (°C),Ambient temperature (°C),ASC tube jacket temperature (°C),LED temperature (°C),Box temperature (°C),Sample RH (%),Span deviation,Mass concentration (μg/m³),Mass concentration (μg/m³),Mass concentration (μg/m³)
DateTimeUTC,F1_M11,P_M11,Q1_M11,Q2_M11,T1_M11,T2_M11,T3_M11,T4_M11,T5_M11,U1_M11,ZSPAN_M11,X0_M11,X2_M11,X1_M11
2021-09-07 01:00:00,,0827.4,4.99,0.00,29.0,28.0,00.0,37.9,30.9,16.0,0003.9,0028.15,0016.93,0015.72
2021-09-07 01:01:00,,0827.4,5.01,0.00,29.1,28.2,00.0,37.9,31.0,15.6,0003.9,0027.81,0016.93,0015.73
2021-09-07 01:02:00,,0827.4,5.01,0.00,29.1,27.2,00.0,37.9,30.7,15.4,0003.6,0028.20,0016.97,0015.72
2021-09-07 01:03:00,,0827.4,4.99,0.00,28.9,25.5,00.0,37.9,30.2,15.3,0003.7,0028.50,0017.01,0015.72
2021-09-07 01:04:00,,0827.4,5.02,0.00,28.8,25.5,00.0,37.9,30.2,15.3,0003.7,0028.72,0017.00,0015.72
2021-09-07 01:05:00,,0827.4,5.00,0.00,28.7,25.9,00.0,37.9,30.3,15.0,0003.4,0029.26,0016.99,0015.74
2021-09-07 01:06:00,,0827.5,5.00,0.00,28.7,26.4,00.0,37.8,30.4,14.8,0003.6,0028.80,0017.01,0015.78
2021-09-07 01:07:00,,0827.5,5.00,0.00,28.8,26.9,00.0,37.8,30.5,14.4,0003.4,0027.97,0017.00,0015.81
2021-09-07 01:08:00,,0827.5,4.99,0.00,28.8,27.3,00.0,37.8,30.7,14.2,0002.6,0028.06,0017.03,0015.83
2021-09-07 01:09:00,,0827.5,5.01,0.00,28.9,27.6,00.0,37.9,30.8,14.2,0002.2,0028.02,0017.03,0015.85
2021-09-07 01:10:00,,0827.5,4.99,0.00,29.0,27.9,00.0,37.9,30.9,14.1,0002.0,0027.47,0017.00,0015.87
2021-09-07 01:11:00,,0827.5,4.99,0.00,29.0,28.2,00.0,37.9,31.0,13.8,0001.7,0028.11,0017.06,0015.90
2021-09-07 01:12:00,,0827.5,5.01,0.00,29.1,27.4,00.0,37.9,30.8,13.8,0001.7,0028.29,0017.14,0015.94
2021-09-07 01:13:00,,0827.5,4.99,0.00,28.9,25.6,00.0,37.9,30.3,14.1,0001.5,0028.53,0017.17,0015.99
2021-09-07 01:14:00,,0827.5,5.01,0.00,28.8,25.4,00.0,37.9,30.2,14.2,0000.8,0028.60,0017.14,0016.01
2021-09-07 01:15:00,,0827.5,5.00,0.00,28.8,25.8,00.0,37.8,30.3,14.3,0000.5,0028.13,0017.08,0016.02
2021-09-07 01:16:00,,0827.5,5.00,0.00,28.7,26.3,00.0,37.8,30.4,14.8,0000.3,0027.45,0017.05,0016.02
2021-09-07 01:17:00,,0827.6,4.99,0.00,28.8,26.8,00.0,37.8,30.5,14.7,0000.0,0028.34,0017.06,0016.04
2021-09-07 01:18:00,,0827.5,5.01,0.00,28.8,27.2,00.0,37.8,30.7,14.3,0000.4,0029.54,0017.11,0016.05
2021-09-07 01:19:00,,0827.5,4.99,0.00,28.9,27.6,00.0,37.8,30.8,14.0,0000.6,0030.51,0017.16,0016.04
2021-09-07 01:20:00,,0827.5,5.02,0.00,28.9,27.9,00.0,37.9,30.8,13.8,0000.3,0030.39,0017.20,0016.05
2021-09-07 01:21:00,,0827.5,5.00,0.00,29.0,28.1,00.0,37.9,30.9,13.5,0000.5,0030.18,0017.28,0016.09
2021-09-07 01:22:00,,0827.5,4.99,0.00,29.1,28.2,00.0,37.9,31.0,13.5,0000.7,0029.21,0017.38,0016.12
2021-09-07 01:23:00,,0827.5,5.01,0.00,29.0,26.8,00.0,37.9,30.5,13.5,0000.9,0028.98,0017.37,0016.13
2021-09-07 01:24:00,,0827.5,5.00,0.00,28.8,25.3,00.0,37.9,30.1,13.5,0001.4,0028.36,0017.36,0016.14
2021-09-07 01:25:00,,0827.5,4.99,0.00,28.7,25.4,00.0,37.9,30.2,13.4,0002.1,0028.66,0017.39,0016.14
2021-09-07 01:26:00,,0827.5,5.01,0.00,28.7,25.9,00.0,37.8,30.2,13.4,0002.5,0029.11,0017.45,0016.16
2021-09-07 01:27:00,,0827.5,4.99,0.00,28.7,26.4,00.0,37.8,30.3,13.0,0003.1,0030.67,0017.48,0016.18
2021-09-07 01:28:00,,0827.5,5.01,0.00,28.7,26.8,00.0,37.8,30.5,13.0,0003.4,0029.91,0017.50,0016.16
2021-09-07 01:29:00,,0827.5,4.98,0.00,28.8,27.3,00.0,37.8,30.7,12.7,0003.1,0029.19,0017.46,0016.13
2021-09-07 01:30:00,,0827.5,4.99,0.00,28.9,27.6,00.0,37.8,30.7,12.6,0003.0,0028.38,0017.38,0016.12
2021-09-07 01:31:00,,0827.5,5.01,0.00,28.9,27.9,00.0,37.9,30.9,12.6,0003.1,0029.21,0017.38,0016.10
2021-09-07 01:32:00,,0827.5,5.00,0.00,29.0,28.1,00.0,37.9,31.0,12.6,0003.0,0028.90,0017.32,0016.08
2021-09-07 01:33:00,,0827.5,4.99,0.00,29.1,28.3,00.0,37.9,31.0,12.5,0003.0,0028.04,0017.23,0016.04
2021-09-07 01:34:00,,0827.5,4.99,0.00,29.1,28.5,00.0,38.0,31.1,12.2,0002.6,0027.92,0017.21,0016.02
2021-09-07 01:35:00,,0827.5,5.01,0.00,29.2,27.5,00.0,38.0,30.9,12.0,0002.1,0027.84,0017.13,0015.95
2021-09-07 01:36:00,,0827.5,5.00,0.00,29.0,25.7,00.0,38.0,30.4,12.5,0001.5,0027.51,0017.06,0015.89
2021-09-07 01:37:00,,0827.5,5.01,0.00,28.9,25.5,00.0,38.0,30.3,13.5,0001.1,0027.28,0017.05,0015.85
2021-09-07 01:38:00,,0827.5,4.99,0.00,28.8,25.9,00.0,37.9,30.4,13.7,0000.9,0026.46,0017.06,0015.84
2021-09-07 01:39:00,,0827.5,4.99,0.00,28.8,26.4,00.0,37.9,30.5,13.7,0000.9,0026.09,0017.04,0015.83
2021-09-07 01:40:00,,0827.6,5.01,0.00,28.8,26.9,00.0,37.9,30.6,13.6,0001.3,0026.64,0017.01,0015.83
2021-09-07 01:41:00,,0827.6,5.00,0.00,28.9,27.3,00.0,37.9,30.7,13.6,0001.5,0027.48,0017.00,0015.83
2021-09-07 01:42:00,,0827.7,5.00,0.00,28.9,27.6,00.0,37.9,30.8,13.8,0001.3,0026.72,0016.93,0015.83
2021-09-07 01:43:00,,0827.7,5.01,0.00,29.0,27.9,00.0,37.9,30.9,14.1,0001.2,0026.81,0016.97,0015.82
2021-09-07 01:44:00,,0827.7,5.00,0.00,29.1,28.2,00.0,38.0,31.0,14.0,0001.3,0027.11,0016.97,0015.82
2021-09-07 01:45:00,,0827.7,5.01,0.00,29.1,28.4,00.0,38.0,31.1,13.6,0001.5,0028.16,0016.97,0015.84
2021-09-07 01:46:00,,0827.7,5.00,0.00,29.2,27.8,00.0,38.0,30.9,13.8,0001.6,0028.78,0016.99,0015.86
2021-09-07 01:47:00,,0827.7,5.01,0.00,29.0,25.9,00.0,38.0,30.5,12.9,0001.5,0029.14,0016.99,0015.86
2021-09-07 01:48:00,,0827.7,4.99,0.00,28.9,25.4,00.0,38.0,30.3,12.9,0001.4,0029.12,0016.97,0015.86
2021-09-07 01:49:00,,0827.7,5.00,0.00,28.8,25.8,00.0,38.0,30.4,13.4,0001.7,0028.93,0016.93,0015.83
2021-09-07 01:50:00,,0827.7,5.00,0.00,28.8,26.2,00.0,37.9,30.4,13.9,0001.3,0029.12,0016.89,0015.80
2021-09-07 01:51:00,,0827.8,5.01,0.00,28.8,26.7,00.0,37.9,30.6,13.7,0001.0,0028.69,0016.93,0015.78
2021-09-07 01:52:00,,0827.8,4.99,0.00,28.9,27.2,00.0,37.9,30.7,13.6,0000.1,0027.41,0016.96,0015.78
2021-09-07 01:53:00,,0827.8,5.00,0.00,28.9,27.5,00.0,37.9,30.8,13.4,0000.3,0027.19,0016.95,0015.77
2021-09-07 01:54:00,,0827.7,5.00,0.00,29.0,27.8,00.0,38.0,30.9,13.2,0000.6,0027.48,0016.97,0015.78
2021-09-07 01:55:00,,0827.8,5.00,0.00,29.1,28.1,00.0,38.0,31.0,13.0,0000.7,0027.08,0016.92,0015.77
2021-09-07 01:56:00,,0827.8,5.01,0.00,29.1,28.3,00.0,38.0,31.1,13.0,0001.3,0025.97,0016.87,0015.77
2021-09-07 01:57:00,,0827.9,5.01,0.00,29.2,28.4,00.0,38.0,31.1,12.9,0002.0,0025.86,0016.85,0015.77
2021-09-07 01:58:00,,0827.8,4.99,0.00,29.2,27.3,00.0,38.1,30.8,12.8,0001.8,0025.53,0016.89,0015.78
2021-09-07 01:59:00,,0827.9,5.00,0.00,29.0,25.4,00.0,38.0,30.2,12.8,0002.1,0025.77,0016.93,0015.81
